Location: Cherry Grove
(44.1968°N, 92.8624°W)
Time: 02:08:41
(UTC-06:00)

Tiangong 2 - Visible Passes

Search period start: 19 February 2018 00:00
Search period end: 01 March 2018 00:00
Orbit: 384 x 388 km, 42.8° (Epoch: 18 February)

Date Brightness Start Highest point End Pass type
(mag) Time Alt. Az. Time Alt. Az. Time Alt. Az.
19 Feb 1.4 18:18:49 10° W 18:21:58 61° S 18:25:06 10° ESE visible
19 Feb 3.3 19:55:49 10° W 19:57:38 21° SW 19:57:38 21° SW visible
20 Feb 2.4 18:56:42 10° W 18:59:38 35° SSW 19:01:41 17° SE visible
21 Feb 3.6 19:35:07 10° WSW 19:37:06 15° SSW 19:38:05 14° S visible
22 Feb 3.2 18:35:43 10° W 18:38:20 24° SSW 18:40:57 10° SSE visible
